Ponca City, OK

10:39 PM CDT on September 17, 2019 (GMT -0500)
Ponca City Municipal

Weather History for KPNC - July, 2019

Change the Weather History Date:

Sunday, July 21, 2019

  Actual Average Record
Temperature  
Mean Temperature 87 °F -  
Max Temperature 97 °F 93 °F 108 °F (1974)
Min Temperature 77 °F 68 °F 52 °F (1970)
Cooling Degree Days 22    
Growing Degree Days 37 (Base 50)    
Moisture  
Dew Point 70 °F    
Average Humidity 63    
Maximum Humidity 79    
Minimum Humidity 41    
Precipitation  
Precipitation 0.00 in - - ()
Sea Level Pressure  
Sea Level Pressure 29.87 in    
Wind  
Wind Speed 9 mph (SE)    
Max Wind Speed 15 mph    
Max Gust Speed 17 mph    
Visibility 10 miles    
Events      
Averages and records for this station are not official NWS values.
T = Trace of Precipitation, MM = Missing Value Source: NWS Daily Summary

Daily Weather History Graph

Daily Weather History Graph

Search for Another Location

Airport or City:

Astronomy

Jul. 21, 2019 Rise Set
Actual Time 6:25 AM CDT 8:43 PM CDT
Civil Twilight 5:56 AM CDT 9:13 PM CDT
Nautical Twilight 5:19 AM CDT 9:49 PM CDT
Astronomical Twilight 4:40 AM CDT 10:28 PM CDT
Moon 11:45 PM CDT (7/21) 10:41 AM CDT (7/21)
Length of Visible Light 15h 17m
Length of Day
14h 18m
Waning Gibbous, 80% of the Moon is Illuminated
Jul 21
Waning Gibbous
Jul 24
Last Quarter
Jul 31
New
Aug 7
First Quarter
Aug 15
Full

Hourly Weather History & Observations

Time (CDT) Temp. Heat Index Dew Point Humidity Pressure Visibility Wind Dir Wind Speed Gust Speed Precip Events Conditions
12:53 AM 81.0 °F 84.4 °F 70.0 °F 69% 29.82 in 10.0 mi SSE 11.5 mph - N/A   Clear
1:53 AM 80.1 °F 83.2 °F 70.0 °F 71% 29.82 in 10.0 mi SSE 12.7 mph - N/A   Clear
2:53 AM 80.1 °F 82.9 °F 69.1 °F 69% 29.83 in 10.0 mi SSE 13.8 mph - N/A   Clear
3:53 AM 78.1 °F - 70.0 °F 76% 29.85 in 10.0 mi SSE 11.5 mph - N/A   Clear
4:53 AM 79.0 °F - 70.0 °F 74% 29.87 in 10.0 mi South 6.9 mph - N/A   Clear
5:53 AM 78.1 °F - 70.0 °F 76% 29.87 in 10.0 mi North - - N/A   Clear
6:53 AM 78.1 °F - 70.0 °F 76% 29.89 in 10.0 mi South 4.6 mph - N/A   Clear
7:53 AM 79.0 °F - 70.0 °F 74% 29.87 in 10.0 mi South 8.1 mph 17.3 mph N/A   Clear
8:53 AM 80.1 °F 83.2 °F 70.0 °F 71% 29.86 in 10.0 mi South 8.1 mph - N/A   Clear
9:53 AM 84.0 °F 88.4 °F 70.0 °F 63% 29.85 in 10.0 mi Variable 6.9 mph - N/A   Clear
10:53 AM 87.1 °F 92.0 °F 70.0 °F 57% 29.86 in 10.0 mi Variable 6.9 mph - N/A   Clear
11:53 AM 87.1 °F 92.8 °F 71.1 °F 59% 29.88 in 10.0 mi West 4.6 mph - N/A   Clear
12:53 PM 87.1 °F 92.8 °F 71.1 °F 59% 29.88 in 10.0 mi WNW 6.9 mph - N/A   Clear
1:53 PM 89.1 °F 95.0 °F 71.1 °F 55% 29.87 in 10.0 mi NNW 8.1 mph - N/A   Clear
2:53 PM 93.9 °F 100.3 °F 70.0 °F 46% 29.86 in 10.0 mi North 8.1 mph - N/A   Clear
3:53 PM 93.0 °F 99.0 °F 70.0 °F 47% 29.84 in 10.0 mi Calm Calm - N/A   Clear
4:53 PM 96.1 °F 102.9 °F 70.0 °F 43% 29.84 in 10.0 mi Variable 4.6 mph - N/A   Clear
5:53 PM 96.1 °F 103.5 °F 71.1 °F 44% 29.82 in 10.0 mi East 5.8 mph - N/A   Clear
6:53 PM 97.0 °F 103.5 °F 70.0 °F 41% 29.81 in 10.0 mi Variable 3.5 mph - N/A   Clear
7:53 PM 91.0 °F 95.6 °F 69.1 °F 48% 29.81 in 10.0 mi Calm Calm - N/A   Clear
8:53 PM 87.1 °F 95.4 °F 73.9 °F 65% 29.84 in 10.0 mi North 4.6 mph - N/A   Partly Cloudy
9:53 PM 80.1 °F 81.7 °F 64.0 °F 58% 29.85 in 10.0 mi North 10.4 mph - N/A   Clear
10:53 PM 78.1 °F - 66.9 °F 68% 29.95 in 10.0 mi NE 15.0 mph - N/A   Overcast
11:23 PM 77.0 °F - 70.0 °F 79% 30.01 in 10.0 mi NE 10.4 mph - N/A   Overcast
11:53 PM 77.0 °F - 70.0 °F 79% 29.98 in 10.0 mi ENE 11.5 mph - N/A   Overcast